TOURFACTS.DK  
Stats and Facts from Tour de France.

Tour de France 2018 starts in 257 days
  Riders   Stages   Teams   Summits   Yearly  


 
Search by year

 2017 - St. 21:  14824 starters.
  5131 different riders.
  634 teams.
  2232 stages.
  454 restdays.
  439589.60 km.
  5653 abandonnees.


Top 3
Christopher Froome86:20:55
Rigoberto Uran86:21:49
Romain Bardet86:23:15
Warren Barguil169 pt.
Primoz Roglic80 pt.
Thomas De Gendt64 pt.
Michael Matthews359 pt.
André Greipel234 pt.
Edvald Boasson Hagen220 pt.
Simon Yates86:27:09
Louis Meintjes86:29:15
Emanuel Buchmann86:54:16
Facts from Tour de France 2009
  |   Stages.  |   Stage winners.  |   Days in yellow  |   Average speed.  |   Route.  |   Teams.  |   All riders.  |   Rookies.  |   Withdrawls.  |  

  |   GC.  |   Polka  |   Green  |   White  |   Summits. (In tour)  |   Summits. (Points)  |   Miscellaneous.  |  

Stage 20 on 25 - 07 - 2009
         Owning:    Alberto Contador    
Pick a stage:  1 2 3 4 5 6 7 8 9 10 11 12 13 14 15 16 17 18 19 20 21
  MontélimarMont-Ventoux | Dist: 167.00 km.
Cat: 3Côte de CitelleNEDAlbert Timmer
4 points
 
Cat: 3EyBLRAliaksandr Kuchynski
4 points
 
Cat: 4FontaubeITADaniele Righi
3 points
 
Cat: 3AbeillesESPJuan Manuel Garate
4 points
 
Cat: HMont VentouxESPJuan Manuel Garate
40 points
 

Average speed for all riders in stage:  34,126 km./hr.
    Place:Name:Team:Time:Km/h:
ESPJuan Manuel GarateNLDRabobank04:39:21  +  00:00:00=35,869 
GERTony MartinUSATeam Columbia-HTC04:39:24  +  00:00:03=35,863 
LUXAndy SchleckDNKTeam Saxo Bank04:39:59  +  00:00:38=35,788 
4 ESPAlberto ContadorKAZAstana Pro Team04:39:59  +  00:00:38=35,788 
5 USALance ArmstrongKAZAstana Pro Team04:40:02  +  00:00:41=35,781 
6 LUXFränk SchleckDNKTeam Saxo Bank04:40:04  +  00:00:43=35,777 
7 CZERoman KreuzigerITALiquigas04:40:07  +  00:00:46=35,771 
8 ITAFranco PellizottiITALiquigas04:40:17  +  00:00:56=35,750 
9 ITAVincenzo NibaliITALiquigas04:40:19  +  00:00:58=35,745 
10 BELBradley WigginsUSAGarmin-Slipstream04:40:24  +  00:01:03=35,735 
11 BELJurgen Van Den BroeckBELSilence-Lotto04:41:00  +  00:01:39=35,658 
12 GERAndréas KlödenKAZAstana Pro Team04:41:03  +  00:01:42=35,652 
13 FRAChristophe RiblonFRAAg2r La Mondiale04:41:08  +  00:01:47=35,641 
14 NEDJoost PosthumaNLDRabobank04:41:17  +  00:01:56=35,622 
15 FRAChristophe Le MevelFRAFrancaise Des Jeux04:41:47  +  00:02:26=35,559 
16 USAChristian VandeveldeUSAGarmin-Slipstream04:41:55  +  00:02:34=35,542 
17 FRAMaxime BouetFRAAgritubel04:42:03  +  00:02:42=35,526 
18 ESPMikel AstarlozaESPEuskaltel - Euskadi04:42:05  +  00:02:44=35,521 
19 ITADaniele RighiITALampre-N.G.C04:42:24  +  00:03:03=35,482 
20 FRASylvain CalzatiFRAAgritubel04:42:36  +  00:03:15=35,456 
21 ESPLuis León SánchezESPCaisse d´Epargne04:42:36  +  00:03:15=35,456 
22 FRASandy CasarFRAFrancaise Des Jeux04:42:41  +  00:03:20=35,446 
23 FRAStéphane GoubertFRAAg2r La Mondiale04:42:41  +  00:03:20=35,446 
24 SVKPeter VelitsDEUTeam Milram04:43:44  +  00:04:23=35,315 
25 ESPIgor AntonESPEuskaltel - Euskadi04:43:58  +  00:04:37=35,286 
26 NZLHayden RoulstonCHECervelo Test Team04:44:28  +  00:05:07=35,224 
27 FRASébastien MinardFRACofidis Le Credit En Ligne04:44:32  +  00:05:11=35,216 
28 RUSVladimir KarpetsRUSTeam Katusha04:44:57  +  00:05:36=35,164 
29 RUSYury TrofimovFRABbox Bouygues Telecom04:45:01  +  00:05:40=35,156 
30 DENChris Anker SørensenDNKTeam Saxo Bank04:45:03  +  00:05:42=35,152 
31 DENNicki SørensenDNKTeam Saxo Bank04:45:03  +  00:05:42=35,152 
32 AUSCadel EvansBELSilence-Lotto04:45:06  +  00:05:45=35,146 
33 USAGeorge HincapieUSATeam Columbia-HTC04:45:06  +  00:05:45=35,146 
34 FRAAmaël MoinardFRACofidis Le Credit En Ligne04:45:06  +  00:05:45=35,146 
35 CANRyder HesjedalUSAGarmin-Slipstream04:45:06  +  00:05:45=35,146 
36 RUSAlexandre BotcharovRUSTeam Katusha04:45:06  +  00:05:45=35,146 
37 FRASylvain ChavanelBELQuick Step04:45:06  +  00:05:45=35,146 
38 AUSMatthew LloydBELSilence-Lotto04:45:08  +  00:05:47=35,141 
39 ESPDavid ArroyoESPCaisse d´Epargne04:45:11  +  00:05:50=35,135 
40 ESPRuben PerezESPEuskaltel - Euskadi04:45:17  +  00:05:56=35,123 
41 ITARinaldo NocentiniFRAAg2r La Mondiale04:45:17  +  00:05:56=35,123 
42 BLRAliaksandr KuchynskiITALiquigas04:45:26  +  00:06:05=35,105 
43 FRAAnthony GeslinFRAFrancaise Des Jeux04:45:30  +  00:06:09=35,096 
44 ESPJosé Ivan GutierrezESPCaisse d´Epargne04:45:39  +  00:06:18=35,078 
45 FRAMickael DelageBELSilence-Lotto04:45:47  +  00:06:26=35,062 
46 NEDAlbert TimmerNLDSkil-Shimano04:45:49  +  00:06:28=35,057 
47 FRAPierre RollandFRABbox Bouygues Telecom04:45:49  +  00:06:28=35,057 
48 FRADavid MoncoutiéFRACofidis Le Credit En Ligne04:46:08  +  00:06:47=35,019 
49 FRACyril DesselFRAAg2r La Mondiale04:46:34  +  00:07:13=34,966 
50 FRARémi PauriolFRACofidis Le Credit En Ligne04:46:41  +  00:07:20=34,951 
51 GERChristian KneesDEUTeam Milram04:46:56  +  00:07:35=34,921 
52 PORSergio PaulinhoKAZAstana Pro Team04:47:13  +  00:07:52=34,887 
53 GERLinus GerdemannDEUTeam Milram04:47:26  +  00:08:05=34,860 
54 FRAChristophe MoreauFRAAgritubel04:47:26  +  00:08:05=34,860 
55 ESPHaimar ZubeldiaKAZAstana Pro Team04:47:26  +  00:08:05=34,860 
56 BELMaxime MonfortUSATeam Columbia-HTC04:47:26  +  00:08:05=34,860 
57 FRAHubert DupontFRAAg2r La Mondiale04:47:26  +  00:08:05=34,860 
58 FRAGeoffroy LequatreFRAAgritubel04:47:26  +  00:08:05=34,860 
59 GERGrischa NiermannNLDRabobank04:47:26  +  00:08:05=34,860 
60 ESPLuis RodriguezESPCaisse d´Epargne04:47:26  +  00:08:05=34,860 
61 BELJohan VansummerenBELSilence-Lotto04:47:26  +  00:08:05=34,860 
62 FRAPierrick FédrigoFRABbox Bouygues Telecom04:47:26  +  00:08:05=34,860 
63 FINCharles WegeliusBELSilence-Lotto04:47:26  +  00:08:05=34,860 
64 RUSSerguei IvanovRUSTeam Katusha04:47:26  +  00:08:05=34,860 
65 FRASamuel DumoulinFRACofidis Le Credit En Ligne04:47:56  +  00:08:35=34,800 
66 NEDLaurens ten DamNLDRabobank04:48:35  +  00:09:14=34,721 
67 FRABrice FeilluFRAAgritubel04:48:48  +  00:09:27=34,695 
68 GERSebastian LangBELSilence-Lotto04:48:54  +  00:09:33=34,683 
69 FRAThierry HupondNLDSkil-Shimano04:48:54  +  00:09:33=34,683 
70 UKRVolodymir GustovCHECervelo Test Team04:48:57  +  00:09:36=34,677 
71 ESPCarlos SastreCHECervelo Test Team04:48:57  +  00:09:36=34,677 
72 SUIDavid LoosliITALampre-N.G.C04:48:57  +  00:09:36=34,677 
73 ESPJoan HorrachRUSTeam Katusha04:48:57  +  00:09:36=34,677 
74 FRAChristophe KernFRACofidis Le Credit En Ligne04:49:33  +  00:10:12=34,605 
75 FRALaurent LefèvreFRABbox Bouygues Telecom04:49:33  +  00:10:12=34,605 
76 FRAJérémy RoyFRAFrancaise Des Jeux04:49:33  +  00:10:12=34,605 
77 BELStaf ScheirlinckxBELSilence-Lotto04:50:50  +  00:11:29=34,453 
78 BELStijn DevolderBELQuick Step04:51:13  +  00:11:52=34,407 
79 GERSimon GeschkeNLDSkil-Shimano04:51:30  +  00:12:09=34,374 
80 UKRYaroslav PopovychKAZAstana Pro Team04:52:23  +  00:13:02=34,270 
81 AUSMichael RogersUSATeam Columbia-HTC04:52:38  +  00:13:17=34,241 
82 FRANicolas VogondyFRAAgritubel04:52:38  +  00:13:17=34,241 
83 NEDStef ClementNLDRabobank04:52:42  +  00:13:21=34,233 
84 ESPGorka VerdugoESPEuskaltel - Euskadi04:52:49  +  00:13:28=34,219 
85 FRAWilliam BonnetFRABbox Bouygues Telecom04:52:58  +  00:13:37=34,202 
86 NEDKoen De KortNLDSkil-Shimano04:53:02  +  00:13:41=34,194 
87 FRAJérôme PineauBELQuick Step04:53:02  +  00:13:41=34,194 
88 FRAAlexandre PichotFRABbox Bouygues Telecom04:53:31  +  00:14:10=34,138 
89 FRACyril LemoineNLDSkil-Shimano04:53:31  +  00:14:10=34,138 
90 FRAStéphane AugeFRACofidis Le Credit En Ligne04:53:45  +  00:14:24=34,111 
91 JPNFumiyuki BeppuNLDSkil-Shimano04:54:01  +  00:14:40=34,080 
92 ESPJosé Joaquin RojasESPCaisse d´Epargne04:56:37  +  00:17:16=33,781 
93 ESPBingen FernandezFRACofidis Le Credit En Ligne04:56:37  +  00:17:16=33,781 
94 COLLeonardo DuqueFRACofidis Le Credit En Ligne04:56:39  +  00:17:18=33,777 
95 FRAArnaud CoyotESPCaisse d´Epargne04:56:41  +  00:17:20=33,773 
96 SWEGustav LarssonDNKTeam Saxo Bank04:58:01  +  00:18:40=33,622 
97 RUSDenis MenchovNLDRabobank04:58:39  +  00:19:18=33,551 
98 ESPEgoi MartínezESPEuskaltel - Euskadi04:58:39  +  00:19:18=33,551 
99 FRAThomas VoecklerFRABbox Bouygues Telecom04:59:19  +  00:19:58=33,476 
100 ITAAlessandro VanottiITALiquigas05:02:02  +  00:22:41=33,175 
101 SLOSimon SpilakITALampre-N.G.C05:02:02  +  00:22:41=33,175 
102 BELGreg Van AvermaetBELSilence-Lotto05:02:05  +  00:22:44=33,170 
103 IOMMark CavendishUSATeam Columbia-HTC05:05:03  +  00:25:42=32,847 
104 NORThor HushovdCHECervelo Test Team05:05:03  +  00:25:42=32,847 
105 ARGJuan Antonio FlechaNLDRabobank05:05:10  +  00:25:49=32,835 
106 ITAFilippo PozzatoRUSTeam Katusha05:05:10  +  00:25:49=32,835 
107 ITAMauro SantambrogioITALampre-N.G.C05:05:10  +  00:25:49=32,835 
108 ESPJose Luis ArrietaFRAAg2r La Mondiale05:05:10  +  00:25:49=32,835 
109 ITAMatteo TosattoBELQuick Step05:05:10  +  00:25:49=32,835 
110 NEDSteven de JonghBELQuick Step05:05:10  +  00:25:49=32,835 
111 BELSébastien RosselerBELQuick Step05:05:10  +  00:25:49=32,835 
112 ITAMarco BandieraITALampre-N.G.C05:05:10  +  00:25:49=32,835 
113 FRASaid HaddouFRABbox Bouygues Telecom05:05:10  +  00:25:49=32,835 
114 GERBert GrabschUSATeam Columbia-HTC05:05:10  +  00:25:49=32,835 
115 ITAFabio SabatiniITALiquigas05:05:10  +  00:25:49=32,835 
116 ITAAlessandro BallanITALampre-N.G.C05:05:10  +  00:25:49=32,835 
117 ITADaniele BennatiITALiquigas05:05:10  +  00:25:49=32,835 
118 GERFabian WegmannDEUTeam Milram05:05:10  +  00:25:49=32,835 
119 USATyler FarrarUSAGarmin-Slipstream05:05:10  +  00:25:49=32,835 
120 AUSMark RenshawUSATeam Columbia-HTC05:05:10  +  00:25:49=32,835 
121 BLRYauheni HutarovichFRAFrancaise Des Jeux05:05:10  +  00:25:49=32,835 
122 ESPCarlos BarredoBELQuick Step05:05:10  +  00:25:49=32,835 
123 KAZDmitriy MuravyevKAZAstana Pro Team05:05:10  +  00:25:49=32,835 
124 NEDMartijn MaaskantUSAGarmin-Slipstream05:05:10  +  00:25:49=32,835 
125 ITAMarzio BruseghinITALampre-N.G.C05:05:10  +  00:25:49=32,835 
126 RUSNikolai TrusovRUSTeam Katusha05:05:10  +  00:25:49=32,835 
127 GERJohannes FröhlingerDEUTeam Milram05:05:10  +  00:25:49=32,835 
128 AUSBrett LancasterCHECervelo Test Team05:05:10  +  00:25:49=32,835 
129 NEDNiki TerpstraDEUTeam Milram05:05:10  +  00:25:49=32,835 
130 RUSMikhail IgnatyevRUSTeam Katusha05:05:10  +  00:25:49=32,835 
131 FINJussi VeikkanenFRAFrancaise Des Jeux05:05:10  +  00:25:49=32,835 
132 FRALloyd MondoryFRAAg2r La Mondiale05:05:10  +  00:25:49=32,835 
133 LUXKim KirchenUSATeam Columbia-HTC05:05:10  +  00:25:49=32,835 
134 FRABenoit VaugrenardFRAFrancaise Des Jeux05:05:10  +  00:25:49=32,835 
135 ESPJuan José OrozESPEuskaltel - Euskadi05:05:10  +  00:25:49=32,835 
136 GERMarkus FothenDEUTeam Milram05:05:10  +  00:25:49=32,835 
137 COLRigoberto UranESPCaisse d´Epargne05:05:10  +  00:25:49=32,835 
138 ESPOscar FreireNLDRabobank05:05:10  +  00:25:49=32,835 
139 BELFrederik WillemsITALiquigas05:05:10  +  00:25:49=32,835 
140 SUIFabian CancellaraDNKTeam Saxo Bank05:05:10  +  00:25:49=32,835 
141 USADanny PateUSAGarmin-Slipstream05:05:10  +  00:25:49=32,835 
142 DENBrian VandborgITALiquigas05:05:10  +  00:25:49=32,835 
143 ESPIñigo CuestaCHECervelo Test Team05:05:10  +  00:25:49=32,835 
144 USADavid ZabriskieUSAGarmin-Slipstream05:05:10  +  00:25:49=32,835 
145 AUTBernhard EiselUSATeam Columbia-HTC05:05:10  +  00:25:49=32,835 
146 NZLJulian DeanUSAGarmin-Slipstream05:05:10  +  00:25:49=32,835 
147 POLMarcin SapaITALampre-N.G.C05:05:10  +  00:25:49=32,835 
148 JPNYukiya ArashiroFRABbox Bouygues Telecom05:05:10  +  00:25:49=32,835 
149 SUIGregory RastKAZAstana Pro Team05:05:10  +  00:25:49=32,835 
150 AUSHeinrich HausslerCHECervelo Test Team05:05:10  +  00:25:49=32,835 
151 GERGerald CiolekDEUTeam Milram05:05:22  +  00:26:01=32,813 
152 AUSStuart O'GradyDNKTeam Saxo Bank05:05:22  +  00:26:01=32,813 
153 GERAndreas KlierCHECervelo Test Team05:05:22  +  00:26:01=32,813 
154 MLTDavid MillarUSAGarmin-Slipstream05:05:22  +  00:26:01=32,813 
155 FRAJonathan HivertNLDSkil-Shimano05:05:22  +  00:26:01=32,813 

Withdrawls: 2
 
Rider
Team
Reason
66  ESPAlan PerezESPEuskaltel - EuskadiExceeded time limit
68  ESPAmets TxurrukaESPEuskaltel - EuskadiExceeded time limit

Todays birthdays.

1870  Hippolyte Pagie
1884  Henri Devroye
1886  Ernest Ricaux
1896  Andre Zonnequin
1897  Jean Kienlen
1903  Robert Brugére
1930  Fred De Bruyne
1930  Jean-Claude Grèt
1932  Vito Favero
1932  Norbert Kerckhove
1946  Ronald De Witte
1967  Johan Verstrepen
1969  Orlando Sergio Gomes